Weather History for KAOH - July, 2013

Change the Weather History Date:

Friday, July 26, 2013

  Actual Average (KFDY) Record (KFDY)
Temperature  
Mean Temperature 66 °F -  
Max Temperature 79 °F 82 °F 97 °F (1952)
Min Temperature 54 °F 63 °F 51 °F (1962)
Cooling Degree Days 2    
Growing Degree Days 16 (Base 50)    
Moisture  
Dew Point 56 °F    
Average Humidity 66    
Maximum Humidity 93    
Minimum Humidity 47    
Precipitation  
Precipitation 0.00 in - - ()
Sea Level Pressure  
Sea Level Pressure 30.04 in    
Wind  
Wind Speed 3 mph (South)    
Max Wind Speed 9 mph    
Max Gust Speed -    
Visibility 10 miles    
Events Rain    
Averages and records for this station are not official NWS values.
T = Trace of Precipitation, MM = Missing Value Source: NWS Daily Summary

Daily Weather History Graph

Daily Weather History Graph

Search for Another Location

Airport or City:

Trip Planner

Search our weather history database for the weather conditions in past years. The results will help you decide how hot, cold, wet, or windy it might be!

Date:

Astronomy

Jul. 26, 2013 Rise Set
Actual Time 6:27 AM EDT 8:57 PM EDT
Civil Twilight 5:56 AM EDT 9:28 PM EDT
Nautical Twilight 5:17 AM EDT 10:07 PM EDT
Astronomical Twilight 4:33 AM EDT 10:50 PM EDT
Moon 11:08 PM EDT 11:04 AM EDT
Length of Visible Light 15h 32m
Length of Day
14h 29m
Waning Gibbous, 80% of the Moon is Illuminated
Jul 26
Waning Gibbous
Jul 29
Last Quarter
Aug 6
New
Aug 14
First Quarter
Aug 20
Full

Hourly Weather History & Observations

Time (EDT) Temp. Dew Point Humidity Pressure Visibility Wind Dir Wind Speed Gust Speed Precip Events Conditions
12:53 AM 59.0 °F 54.0 °F 83% 30.11 in 10.0 mi East 4.6 mph - N/A   Clear
1:53 AM 60.1 °F 54.0 °F 80% 30.11 in 10.0 mi ESE 3.5 mph - N/A   Clear
2:53 AM 57.0 °F 52.0 °F 83% 30.09 in 10.0 mi Calm Calm - N/A   Clear
3:53 AM 55.9 °F 52.0 °F 87% 30.08 in 10.0 mi Calm Calm - N/A   Clear
4:53 AM 55.0 °F 51.1 °F 86% 30.08 in 10.0 mi Calm Calm - N/A   Clear
5:53 AM 54.0 °F 50.0 °F 86% 30.08 in 10.0 mi Calm Calm - N/A   Clear
6:53 AM 54.0 °F 52.0 °F 93% 30.08 in 10.0 mi Calm Calm - N/A   Clear
7:53 AM 62.1 °F 55.9 °F 80% 30.08 in 10.0 mi Calm Calm - N/A   Clear
8:53 AM 66.9 °F 57.9 °F 73% 30.10 in 10.0 mi Calm Calm - N/A   Clear
9:53 AM 70.0 °F 57.9 °F 65% 30.09 in 10.0 mi South 3.5 mph - N/A   Clear
10:53 AM 73.0 °F 55.0 °F 53% 30.09 in 10.0 mi Calm Calm - N/A   Clear
11:53 AM 73.0 °F 55.9 °F 55% 30.09 in 10.0 mi Variable 5.8 mph - N/A   Clear
12:53 PM 75.0 °F 55.0 °F 50% 30.08 in 10.0 mi Variable 3.5 mph - N/A   Clear
1:53 PM 77.0 °F 57.0 °F 50% 30.05 in 10.0 mi Calm Calm - N/A   Clear
2:53 PM 78.1 °F 57.0 °F 48% 30.03 in 10.0 mi South 6.9 mph - N/A   Partly Cloudy
3:53 PM 78.1 °F 57.0 °F 48% 30.01 in 10.0 mi SSW 8.1 mph - N/A   Clear
4:53 PM 79.0 °F 57.0 °F 47% 30.00 in 10.0 mi South 8.1 mph - N/A   Partly Cloudy
5:53 PM 78.1 °F 57.0 °F 48% 29.99 in 10.0 mi SSW 9.2 mph - N/A   Scattered Clouds
6:53 PM 77.0 °F 57.0 °F 50% 29.98 in 10.0 mi SSW 9.2 mph - N/A   Clear
7:53 PM 75.0 °F 59.0 °F 57% 29.98 in 10.0 mi South 4.6 mph - N/A   Clear
8:53 PM 73.0 °F 57.9 °F 59% 29.97 in 10.0 mi South 6.9 mph - N/A   Mostly Cloudy
9:53 PM 71.1 °F 57.9 °F 63% 29.96 in 10.0 mi South 5.8 mph - N/A   Clear
10:53 PM 71.1 °F 57.9 °F 63% 29.96 in 10.0 mi South 6.9 mph - 0.00 in Rain Light Rain
11:53 PM 71.1 °F 59.0 °F 66% 29.94 in 10.0 mi South 5.8 mph - 0.00 in   Mostly Cloudy